TimeEST,TemperatureF,Dew PointF,Humidity,Sea Level PressureIn,VisibilityMPH,Wind Direction,Wind SpeedMPH,Gust SpeedMPH,PrecipitationIn,Events,Conditions,WindDirDegrees,DateUTC
12:53 AM,36.0,27.0,70,30.30,10.0,Variable,3.5,-,N/A,,Clear,0,2013-11-28 05:53:00
1:53 AM,35.1,25.0,67,30.30,10.0,Variable,5.8,-,N/A,,Clear,0,2013-11-28 06:53:00
2:53 AM,34.0,24.1,67,30.32,10.0,North,4.6,-,N/A,,Clear,360,2013-11-28 07:53:00
3:53 AM,33.1,23.0,66,30.34,10.0,North,6.9,-,N/A,,Clear,360,2013-11-28 08:53:00
4:53 AM,30.9,23.0,72,30.35,10.0,North,8.1,-,N/A,,Clear,360,2013-11-28 09:53:00
5:53 AM,30.9,24.1,76,30.37,10.0,North,6.9,-,N/A,,Clear,10,2013-11-28 10:53:00
6:53 AM,30.9,23.0,72,30.38,10.0,North,8.1,-,N/A,,Clear,10,2013-11-28 11:53:00
7:53 AM,33.1,23.0,66,30.42,10.0,North,8.1,-,N/A,,Clear,10,2013-11-28 12:53:00
8:53 AM,36.0,24.1,62,30.45,10.0,NNE,10.4,-,N/A,,Clear,20,2013-11-28 13:53:00
9:53 AM,39.9,24.1,53,30.46,10.0,NE,6.9,-,N/A,,Clear,40,2013-11-28 14:53:00
10:53 AM,44.1,24.1,45,30.46,10.0,ENE,5.8,-,N/A,,Clear,60,2013-11-28 15:53:00
11:53 AM,46.9,25.0,42,30.45,10.0,NE,8.1,-,N/A,,Clear,40,2013-11-28 16:53:00
12:53 PM,50.0,25.0,38,30.42,10.0,Variable,3.5,-,N/A,,Clear,0,2013-11-28 17:53:00
1:53 PM,52.0,26.1,37,30.40,10.0,Calm,Calm,-,N/A,,Clear,0,2013-11-28 18:53:00
2:53 PM,54.0,26.1,34,30.40,10.0,North,6.9,-,N/A,,Clear,10,2013-11-28 19:53:00
3:53 PM,52.0,27.0,38,30.42,10.0,North,3.5,-,N/A,,Clear,360,2013-11-28 20:53:00
4:53 PM,51.1,28.0,41,30.43,10.0,Calm,Calm,-,N/A,,Clear,0,2013-11-28 21:53:00
5:53 PM,44.1,33.1,65,30.43,10.0,Calm,Calm,-,N/A,,Clear,0,2013-11-28 22:53:00
6:53 PM,41.0,34.0,76,30.46,10.0,Calm,Calm,-,N/A,,Clear,0,2013-11-28 23:53:00
7:53 PM,37.9,32.0,79,30.48,10.0,Calm,Calm,-,N/A,,Clear,0,2013-11-29 00:53:00
8:53 PM,36.0,30.9,82,30.48,10.0,Calm,Calm,-,N/A,,Clear,0,2013-11-29 01:53:00
9:53 PM,36.0,30.9,82,30.49,10.0,Calm,Calm,-,N/A,,Clear,0,2013-11-29 02:53:00
10:53 PM,37.9,30.9,76,30.49,10.0,ENE,3.5,-,N/A,,Clear,70,2013-11-29 03:53:00
11:53 PM,36.0,30.0,79,30.49,10.0,Calm,Calm,-,N/A,,Clear,0,2013-11-29 04:53:00